This demonstration page uses our WeatherBlox Daily Observations layout. Learn more.

38.88101, -77.10428

Hourly Observations for March 7, 2015

Temp ( °F °C ) Dew Point ( °F °C ) Humidity (%) Winds ( mph kmh ) Pressure ( in mb ) Visibility ( mi km ) Precip ( " mm )
12:52 am 00:52 Clear 22 -5.6 12 -11.1 66 66 SW 3 6 30.41 1030 10 16.0934 0 0
1:52 am 01:52 Clear 21 -6.1 12 -11.1 68 68 SSW 3 6 30.41 1030 10 16.0934 0 0
2:52 am 02:52 Clear 21 -6.1 10 -12.2 62 62 SSW 3 6 30.39 1029 10 16.0934 0 0
3:52 am 03:52 Clear 20 -6.7 9 -12.8 62 62 SSW 5 7 30.38 1029 10 16.0934 0 0
4:52 am 04:52 Clear 20 -6.7 10 -12.2 65 65 SSW 3 6 30.36 1028 10 16.0934 0 0
5:52 am 05:52 Clear 20 -6.7 11 -11.7 68 68 SW 5 7 30.37 1028 10 16.0934 0 0
6:52 am 06:52 Sunny 20 -6.7 13 -10.6 74 74 SW 5 7 30.37 1028 10 16.0934 0 0
7:52 am 07:52 Mostly Sunny 21 -6.1 13 -10.6 71 71 SSW 5 7 30.36 1028 10 16.0934 0 0
8:52 am 08:52 Partly Cloudy 24 -4.4 16 -8.9 71 71 S 8 13 30.36 1028 10 16.0934 0 0
9:52 am 09:52 Mostly Cloudy 28 -2.2 18 -7.8 66 66 S 10 17 30.35 1028 10 16.0934 0 0
10:52 am 10:52 Mostly Cloudy 31 -0.6 18 -7.8 59 59 S 10 17 30.33 1027 10 16.0934 0 0
11:52 am 11:52 Partly Cloudy 35 1.7 19 -7.2 52 52 SSE 9 15 30.29 1026 10 16.0934 0 0
12:52 pm 12:52 Partly Cloudy 39 3.9 20 -6.7 46 46 S 10 17 30.25 1025 10 16.0934 0 0
1:52 pm 13:52 Mostly Cloudy 43 6 19 -7 39 39 S 10 17 30.21 1023 10 16.0934 0 0
2:52 pm 14:52 Mostly Cloudy 45 7.2 21 -6.1 39 39 SSW 10 17 30.19 1023 10 16.0934 0 0
3:52 pm 15:52 Partly Cloudy 47 8.3 21 -6.1 36 36 S 14 22 30.14 1021 10 16.0934 0 0
4:52 pm 16:52 Partly Cloudy 48 8.9 22 -5.6 36 36 SSW 18 30 30.12 1020 10 16.0934 0 0
5:52 pm 17:52 Mostly Sunny 47 8.3 24 -4.4 41 41 SSW 14 22 30.11 1020 10 16.0934 0 0
6:52 pm 18:52 Mostly Clear 43 6.1 26 -3.3 51 51 S 9 15 30.12 1020 10 16.0934 0 0
7:52 pm 19:52 Clear 43 6.1 26 -3.3 51 51 SSW 10 17 30.11 1020 10 16.0934 0 0
8:52 pm 20:52 Clear 41 5 27 -2.8 57 57 S 9 15 30.11 1020 10 16.0934 0 0
9:52 pm 21:52 Mostly Clear 42 5.6 26 -3.3 53 53 S 7 11 30.1 1019 10 16.0934 0 0
10:52 pm 22:52 Mostly Clear 42 5.6 27 -2.8 55 55 Calm 30.1 1019 10 16.0934 0 0
11:52 pm 23:52 Mostly Cloudy 44 6.7 26 -3.3 49 49 S 3 6 30.1 1019 10 16.0934 0 0

Powered by AerisWeather